Temp
64 66 65 65 52 48 44 53 58 63 60 63 67 66 62 62 61 54 68 72 71 70 72 72 72 73 73 72 72 72 72 71 71 71 71 70 70 70 70 70 70 71 71 71 71 70 70 70 69
60 68 64 57 46 40 45 57 58 60 63 67 68 67 62 58 66 66 66 72 72 70 71 72 71 72 72 72 72 71 71 71 71 70 70 70 70 70 70 70 70 69 70 70 70 69 70 68 68
64 66 56 50 45 42 46 57 61 62 67 66 63 67 62 62 66 67 72 72 72 71 72 71 71 72 72 72 71 71 71 70 70 70 70 70 70 70 70 70 69 69 70 70 70 69 68 68 68
63 59 56 46 44 51 54 63 65 61 64 67 65 60 63 70 69 71 73 72 70 69 71 70 71 72 72 71 71 71 70 70 70 70 69 69 69 69 69 69 69 69 68 69 69 67 67 67 66
59 53 45 41 47 54 59 63 65 60 59 61 66 61 59 67 72 72 71 70 67 69 70 71 71 71 71 71 71 70 70 70 69 69 68 68 67 68 68 68 68 68 68 68 68 68 67 66 66
52 51 41 38 45 56 60 65 65 63 62 62 60 61 60 69 69 69 70 68 69 68 70 70 67 68 70 70 70 69 69 69 68 68 67 67 67 66 67 67 67 67 67 67 67 66 66 65 66
48 45 40 40 46 51 58 64 59 58 58 62 66 59 59 64 68 68 68 68 68 69 68 66 65 66 66 67 67 68 68 67 67 66 66 65 65 65 65 65 66 66 67 67 67 67 67 65 65
52 48 41 41 44 48 59 61 62 60 60 67 66 57 55 63 66 66 66 66 66 68 68 65 63 62 61 61 63 64 65 65 65 64 63 63 64 64 63 61 64 65 66 66 67 67 66 65 65
54 42 39 43 47 51 61 57 64 62 60 63 62 61 63 65 64 63 62 63 66 67 67 65 64 62 60 59 60 61 62 62 62 61 61 60 57 58 58 61 63 64 65 67 66 66 64 62 61
49 39 45 53 51 50 58 54 56 59 58 57 57 60 62 62 61 61 61 61 64 64 66 66 67 63 60 65 57 55 58 56 56 56 56 58 57 57 59 58 61 62 63 66 66 64 62 59 55
49 43 50 56 57 56 57 57 56 53 55 58 58 57 58 59 61 64 66 64 63 66 67 68 68 66 61 59 55 53 53 53 54 56 56 57 57 55 54 53 54 55 57 56 63 58 57 55 55
47 53 54 55 58 56 54 56 56 54 58 62 60 62 58 58 60 63 64 64 63 67 67 68 69 66 60 58 56 54 54 53 53 54 57 55 53 54 54 53 54 54 54 54 60 55 56 55 55
47 50 56 58 56 55 57 54 54 55 59 62 63 62 58 58 59 61 61 62 67 68 68 68 67 65 62 59 56 55 54 53 53 54 56 55 54 53 54 53 54 54 55 55 58 56 54 53 54
49 51 52 53 54 55 54 54 53 55 59 60 61 59 59 59 60 60 61 60 65 69 66 68 68 65 62 59 56 54 54 54 54 53 55 56 55 54 54 53 54 54 55 59 59 54 52 52 52
49 43 47 51 51 51 54 50 47 60 58 59 59 59 59 60 61 61 63 63 65 67 67 68 69 65 61 59 57 55 54 55 53 53 55 56 57 55 54 53 54 56 55 60 56 58 54 55 57
41 40 33 47 50 52 52 43 52 59 53 57 59 57 59 60 62 64 64 64 65 65 63 65 70 64 60 58 56 56 54 53 52 53 54 56 57 57 54 53 54 58 55 59 54 57 56 56 53
34 27 34 41 51 50 47 45 54 59 56 53 57 59 58 61 60 64 65 65 65 65 64 64 66 63 59 58 56 54 54 53 52 52 53 55 57 57 54 53 54 58 54 56 58 53 54 55 53
28 29 35 36 43 48 45 45 52 54 53 53 52 56 56 59 62 63 65 65 65 66 65 65 65 61 59 58 54 52 52 51 52 51 53 55 56 56 54 53 54 55 54 55 57 54 56 57 56
37 35 33 39 47 44 43 46 50 55 52 53 51 51 56 61 62 65 65 65 64 65 63 63 62 61 60 57 54 52 52 50 50 51 54 55 55 56 54 53 53 54 55 54 58 55 53 56 56
34 30 30 39 45 44 44 43 51 53 53 54 55 54 54 55 58 62 64 64 63 63 63 63 63 63 63 59 57 53 54 49 50 51 53 54 55 55 54 54 53 54 54 54 58 56 52 52 53
29 29 30 31 36 41 41 39 43 49 50 52 55 59 58 60 60 57 62 63 63 62 64 63 63 63 65 60 55 52 50 49 48 49 50 52 55 55 55 54 53 54 55 54 54 54 53 51 51
23 35 35 34 32 24 35 25 40 45 48 52 57 58 58 57 63 64 59 61 63 63 66 65 64 63 65 60 56 54 54 51 51 51 50 52 54 54 54 54 54 54 54 54 54 56 54 53 50
27 34 32 32 30 29 30 28 36 45 46 51 56 57 60 62 61 64 62 64 65 65 65 65 63 63 63 60 58 55 54 52 51 49 50 50 52 54 54 54 54 54 54 55 55 54 54 53 51
36 31 31 30 28 20 29 30 31 39 45 49 55 58 58 61 62 63 65 64 64 65 65 65 62 61 62 59 58 56 53 50 50 51 50 51 52 52 52 53 53 53 54 54 54 54 54 53 52
31 22 14 13 17 18 33 29 34 41 47 51 54 57 61 61 62 64 60 61 63 62 64 64 61 60 61 59 58 56 54 53 52 51 52 50 50 51 51 52 51 52 54 55 55 54 54 53 52
23 23 14 11 13 20 32 27 34 47 52 55 56 56 58 55 62 63 65 61 63 62 63 64 61 60 61 60 58 56 55 55 54 54 53 53 53 53 53 52 52 53 54 55 54 53 53 53 52
23 21 29 21 22 18 26 35 44 49 50 51 52 56 56 55 53 58 64 61 62 61 62 63 62 61 61 61 58 56 56 55 54 54 53 53 53 53 53 53 52 53 54 54 54 52 52 53 52
29 33 22 22 13 12 23 26 30 39 45 49 52 52 56 58 54 54 58 59 62 62 63 64 63 61 61 62 58 56 56 55 54 53 53 52 52 53 52 52 53 53 54 53 53 52 52 52 51
26 25 25 26 24 16 17 25 41 44 41 41 43 45 45 48 50 51 52 52 60 61 62 62 62 61 60 61 57 56 56 55 54 53 53 53 53 53 53 53 53 54 54 53 52 52 52 52 52
28 26 26 19 18 24 24 27 43 44 42 43 42 44 44 45 47 47 50 50 52 57 59 60 61 60 59 61 57 56 56 55 54 54 53 53 52 53 53 54 54 54 54 53 52 51 52 52 53
MSLP
1012.73 1012.09 1012.07 1012.09 1013.45 1013.54 1012.72 1010.55 1008.94 1007.87 1006.68 1006.65 1006.52 1006.91 1007.80 1008.54 1009.68 1010.94 1011.27 1011.27 1011.91 1012.69 1013.23 1013.52 1013.76 1014.37 1014.71 1014.89 1015.05 1015.21 1015.35 1015.53 1015.71 1015.76 1015.84 1015.95 1015.99 1016.00 1016.00 1015.91 1015.76 1015.60 1015.41 1015.35 1015.30 1015.31 1015.30 1015.17 1015.06
1012.86 1012.28 1012.29 1012.91 1013.75 1013.73 1012.27 1009.71 1008.61 1007.79 1006.89 1006.42 1006.66 1007.10 1008.10 1009.38 1009.73 1010.65 1011.47 1011.79 1011.90 1012.65 1013.30 1013.63 1013.91 1014.50 1014.88 1015.01 1015.18 1015.37 1015.52 1015.70 1015.83 1015.90 1016.03 1016.12 1016.17 1016.15 1016.09 1015.98 1015.90 1015.88 1015.68 1015.58 1015.52 1015.48 1015.35 1015.32 1015.16
1013.00 1012.76 1013.30 1013.67 1013.63 1013.16 1011.65 1009.38 1008.25 1007.67 1006.82 1006.74 1007.04 1007.43 1008.42 1009.45 1009.92 1010.33 1010.80 1011.78 1012.03 1012.79 1013.26 1013.81 1014.03 1014.63 1014.94 1015.11 1015.32 1015.46 1015.68 1015.83 1015.94 1016.03 1016.13 1016.20 1016.22 1016.23 1016.16 1016.13 1016.17 1016.06 1015.86 1015.68 1015.65 1015.69 1015.55 1015.40 1015.27
1013.01 1013.10 1013.60 1013.63 1013.46 1012.01 1010.85 1009.58 1008.64 1007.48 1007.21 1006.97 1007.24 1008.46 1009.13 1009.28 1009.60 1010.05 1011.09 1011.68 1012.31 1012.93 1013.38 1013.98 1014.16 1014.70 1014.98 1015.22 1015.38 1015.57 1015.78 1015.89 1016.01 1016.14 1016.18 1016.25 1016.29 1016.30 1016.25 1016.31 1016.15 1016.11 1016.13 1015.94 1015.93 1015.96 1015.82 1015.67 1015.49
1013.11 1013.97 1014.17 1013.94 1013.02 1011.67 1010.28 1009.06 1008.36 1007.56 1007.25 1007.39 1007.44 1008.81 1009.74 1010.09 1009.70 1010.37 1011.11 1011.71 1012.36 1013.03 1013.48 1013.77 1014.41 1014.75 1015.01 1015.24 1015.43 1015.69 1015.83 1015.94 1016.13 1016.28 1016.38 1016.45 1016.49 1016.44 1016.43 1016.41 1016.38 1016.34 1016.30 1016.19 1016.18 1016.03 1015.99 1015.83 1015.58
1013.86 1014.22 1014.72 1014.28 1013.01 1011.33 1009.84 1008.93 1007.70 1007.27 1007.02 1007.46 1008.07 1008.94 1010.29 1010.40 1010.31 1010.92 1011.21 1011.87 1012.29 1013.00 1013.56 1014.03 1014.58 1014.86 1015.09 1015.25 1015.51 1015.77 1015.92 1016.08 1016.27 1016.41 1016.53 1016.61 1016.67 1016.74 1016.79 1016.73 1016.67 1016.64 1016.60 1016.46 1016.38 1016.25 1016.21 1016.00 1015.78
1014.14 1014.64 1014.55 1013.75 1012.99 1011.46 1009.80 1008.67 1008.15 1007.59 1007.27 1007.33 1007.76 1009.02 1010.53 1011.01 1010.85 1011.18 1011.44 1011.88 1012.43 1012.87 1013.67 1014.33 1014.71 1015.03 1015.23 1015.45 1015.72 1015.84 1016.01 1016.26 1016.41 1016.58 1016.73 1016.82 1016.88 1016.97 1017.06 1017.07 1016.94 1016.88 1016.81 1016.63 1016.37 1016.17 1015.97 1015.99 1015.91
1013.73 1014.44 1014.17 1013.58 1012.81 1011.19 1009.33 1008.80 1007.78 1007.50 1007.54 1007.27 1007.54 1009.18 1010.62 1010.88 1010.98 1011.40 1011.84 1012.15 1012.52 1013.09 1013.61 1014.26 1014.84 1015.27 1015.49 1015.78 1016.00 1016.04 1016.21 1016.44 1016.59 1016.73 1016.83 1016.88 1017.01 1017.14 1017.24 1017.28 1017.14 1017.10 1017.07 1016.80 1016.62 1016.45 1016.27 1016.14 1016.08
1013.32 1014.23 1014.05 1013.05 1012.30 1011.01 1009.49 1009.40 1008.23 1007.62 1007.64 1008.07 1008.82 1009.45 1009.65 1010.74 1011.38 1011.85 1012.27 1012.54 1012.68 1013.19 1013.65 1014.17 1014.64 1015.23 1015.68 1016.00 1016.22 1016.24 1016.46 1016.62 1016.69 1016.74 1016.86 1017.03 1017.21 1017.29 1017.38 1017.24 1017.31 1017.36 1017.15 1016.92 1016.85 1016.69 1016.61 1016.59 1016.42
1013.66 1013.97 1013.10 1012.02 1011.31 1010.89 1010.12 1009.62 1009.06 1008.74 1008.53 1008.73 1009.91 1010.51 1010.67 1010.88 1011.60 1011.97 1012.04 1012.20 1012.46 1012.94 1013.45 1013.95 1014.18 1014.93 1015.52 1015.79 1016.29 1016.39 1016.60 1016.77 1016.81 1016.83 1016.93 1017.02 1017.04 1017.23 1017.41 1017.38 1017.43 1017.53 1017.34 1017.23 1017.00 1017.00 1016.93 1016.92 1016.78
1013.30 1013.07 1012.50 1011.52 1010.99 1010.86 1010.28 1009.73 1009.58 1009.28 1009.23 1009.00 1009.82 1011.01 1011.17 1011.20 1011.64 1011.94 1012.08 1011.99 1011.98 1012.38 1013.04 1013.52 1013.91 1014.52 1015.12 1015.61 1016.17 1016.36 1016.65 1016.83 1016.85 1016.85 1016.86 1016.96 1017.17 1017.35 1017.51 1017.62 1017.75 1017.74 1017.76 1017.67 1017.32 1017.37 1017.26 1017.39 1017.24
1013.46 1012.66 1012.19 1011.48 1011.11 1010.80 1010.43 1009.86 1009.57 1009.60 1009.23 1009.08 1009.46 1009.80 1011.00 1011.34 1011.30 1011.67 1012.00 1011.93 1011.99 1011.94 1012.51 1013.00 1013.53 1014.27 1014.86 1015.29 1015.83 1016.11 1016.44 1016.67 1016.88 1016.88 1016.87 1017.08 1017.35 1017.51 1017.62 1017.81 1017.93 1018.05 1018.17 1018.06 1017.69 1017.73 1017.62 1017.67 1017.59
1013.65 1012.95 1012.18 1011.51 1011.16 1010.76 1010.40 1010.25 1009.98 1009.44 1009.12 1009.00 1009.42 1009.68 1010.22 1010.80 1011.04 1011.26 1011.76 1011.84 1011.80 1011.83 1012.07 1012.52 1013.20 1013.96 1014.46 1014.94 1015.46 1015.88 1016.15 1016.51 1016.74 1016.84 1016.87 1017.09 1017.38 1017.64 1017.69 1017.99 1018.05 1018.27 1018.37 1018.23 1018.03 1018.09 1018.14 1018.13 1018.05
1014.35 1013.39 1012.54 1011.87 1011.44 1010.91 1010.59 1009.95 1010.24 1009.08 1008.83 1009.05 1009.15 1009.42 1009.65 1009.81 1010.11 1010.52 1011.13 1011.57 1011.39 1011.60 1011.84 1012.19 1012.75 1013.45 1014.02 1014.66 1015.13 1015.63 1015.93 1016.29 1016.59 1016.80 1016.91 1017.02 1017.31 1017.58 1017.83 1018.15 1018.23 1018.44 1018.57 1018.32 1018.30 1018.46 1018.49 1018.48 1018.37
1014.94 1014.22 1012.90 1011.89 1011.47 1011.06 1010.66 1009.50 1009.22 1008.56 1008.99 1008.90 1008.86 1008.93 1008.90 1008.96 1009.28 1009.39 1009.40 1010.43 1010.83 1011.15 1011.46 1011.92 1012.36 1013.10 1013.80 1014.33 1014.82 1015.33 1015.75 1016.09 1016.51 1016.71 1016.85 1017.05 1017.24 1017.50 1017.89 1018.24 1018.38 1018.52 1018.70 1018.48 1018.61 1018.58 1018.64 1018.64 1018.55
1015.90 1015.09 1013.91 1011.77 1010.97 1010.52 1010.71 1007.77 1008.10 1007.91 1008.47 1008.35 1008.20 1008.14 1008.40 1008.12 1007.98 1008.20 1008.66 1009.06 1010.08 1010.75 1011.16 1011.69 1012.07 1012.82 1013.58 1014.13 1014.64 1015.04 1015.56 1015.97 1016.37 1016.60 1016.81 1017.05 1017.25 1017.42 1017.90 1018.24 1018.47 1018.46 1018.77 1018.65 1018.95 1019.01 1019.02 1019.16 1019.21
1016.82 1015.74 1014.03 1012.50 1011.65 1011.16 1010.34 1008.13 1008.04 1007.88 1008.04 1007.81 1007.61 1007.48 1007.53 1007.42 1007.45 1007.29 1007.65 1008.25 1008.85 1009.82 1010.60 1011.09 1011.56 1012.40 1013.27 1013.93 1014.48 1014.94 1015.38 1015.88 1016.20 1016.47 1016.78 1016.99 1017.21 1017.43 1017.89 1018.22 1018.49 1018.55 1018.89 1018.93 1018.99 1019.29 1019.27 1019.60 1019.75
1017.60 1016.41 1014.68 1013.28 1012.03 1011.17 1010.07 1008.84 1008.22 1007.64 1007.64 1007.32 1007.23 1007.03 1006.79 1006.65 1006.35 1006.46 1006.65 1007.28 1008.07 1008.86 1009.73 1010.47 1011.10 1011.95 1012.87 1013.70 1014.50 1015.11 1015.50 1015.83 1016.08 1016.37 1016.66 1016.88 1017.17 1017.45 1017.87 1018.19 1018.49 1018.71 1019.04 1019.07 1019.34 1019.51 1019.74 1019.79 1020.11
1018.25 1016.97 1015.06 1013.99 1013.33 1012.47 1010.50 1009.18 1008.02 1007.25 1006.90 1006.60 1006.47 1006.55 1006.03 1005.53 1005.21 1005.37 1005.68 1006.30 1007.19 1008.12 1009.02 1009.69 1010.39 1011.38 1012.25 1013.25 1014.17 1015.00 1015.36 1015.79 1016.10 1016.25 1016.43 1016.74 1017.05 1017.41 1017.79 1018.17 1018.48 1018.77 1019.08 1019.17 1019.19 1019.69 1019.93 1020.21 1020.25
1018.93 1017.65 1015.77 1014.14 1013.45 1012.55 1010.18 1008.50 1007.59 1006.86 1005.66 1005.54 1005.45 1005.09 1004.96 1004.86 1004.65 1004.71 1005.05 1005.48 1006.19 1006.82 1007.78 1008.94 1009.55 1010.41 1011.32 1012.28 1013.18 1014.08 1014.75 1015.46 1015.76 1015.98 1016.29 1016.57 1016.89 1017.26 1017.66 1018.02 1018.46 1018.62 1019.01 1019.22 1019.20 1019.41 1019.97 1020.24 1020.35
1019.32 1018.46 1017.18 1016.19 1014.90 1013.18 1010.98 1008.04 1007.33 1006.18 1005.08 1004.40 1003.89 1003.63 1003.59 1003.54 1003.60 1003.81 1004.25 1004.64 1005.13 1005.87 1006.60 1007.60 1008.49 1009.23 1010.44 1011.72 1012.85 1013.89 1014.82 1015.51 1015.99 1016.11 1016.28 1016.49 1016.67 1017.02 1017.40 1017.81 1018.17 1018.46 1018.82 1019.16 1019.28 1019.45 1019.72 1020.13 1020.48
1019.24 1018.99 1017.77 1016.41 1015.97 1013.76 1012.68 1007.57 1006.23 1005.29 1004.36 1003.48 1002.58 1002.59 1002.47 1002.37 1002.33 1002.49 1003.07 1003.66 1003.92 1004.57 1005.45 1006.23 1007.44 1008.46 1009.63 1011.00 1012.03 1012.70 1013.38 1014.32 1014.79 1015.25 1015.74 1016.25 1016.45 1016.87 1017.21 1017.57 1017.96 1018.31 1018.58 1018.97 1019.21 1019.41 1019.61 1019.89 1020.38
1019.01 1018.91 1018.19 1016.86 1015.40 1014.59 1012.37 1010.58 1003.13 1004.89 1003.25 1001.05 1001.41 1001.52 1001.29 1001.34 1001.32 1001.27 1001.70 1002.27 1002.85 1003.46 1004.20 1005.24 1006.26 1007.53 1008.80 1010.16 1011.16 1012.04 1012.91 1013.75 1014.23 1015.07 1015.62 1016.05 1016.42 1016.67 1017.06 1017.36 1017.75 1018.26 1018.46 1018.79 1018.99 1019.29 1019.48 1019.75 1020.20
1019.31 1018.67 1017.97 1016.67 1015.31 1013.23 1009.49 1009.80 1002.95 1003.09 999.86 1001.45 1000.77 1000.48 1000.30 1000.17 1000.13 1000.20 1000.40 1001.18 1001.81 1002.42 1003.20 1004.17 1005.41 1006.49 1007.78 1009.15 1010.31 1011.20 1012.03 1012.86 1013.78 1014.61 1015.27 1015.73 1016.16 1016.57 1016.89 1017.18 1017.61 1017.95 1018.34 1018.58 1018.74 1019.10 1019.31 1019.54 1019.93
1019.91 1019.50 1017.59 1015.03 1013.44 1009.15 1008.79 1008.21 1002.84 1001.45 1000.81 1000.25 1000.22 999.52 999.06 998.84 998.87 999.07 999.60 1000.12 1000.71 1001.48 1002.32 1003.31 1004.49 1005.69 1006.78 1008.15 1009.30 1010.52 1011.25 1011.95 1012.55 1013.38 1014.27 1015.08 1015.74 1016.25 1016.61 1016.98 1017.45 1017.81 1018.13 1018.28 1018.44 1018.86 1019.09 1019.39 1019.88
1019.18 1019.42 1018.46 1014.83 1012.66 1009.23 1008.19 1005.74 1000.96 1001.67 1000.99 1000.13 999.64 999.33 998.86 998.00 997.67 997.66 997.99 998.88 999.43 1000.32 1001.13 1002.06 1003.35 1004.64 1005.80 1007.10 1008.18 1009.69 1010.70 1011.31 1011.92 1012.60 1013.37 1014.16 1014.77 1015.44 1016.10 1016.67 1017.07 1017.40 1017.84 1018.18 1018.32 1018.82 1018.96 1019.17 1019.99
1018.57 1017.55 1015.59 1014.58 1012.47 1010.36 1007.47 1003.87 1002.03 1001.34 1000.09 999.70 998.93 998.32 997.95 997.79 997.34 997.30 997.37 997.74 998.37 999.38 1000.20 1000.96 1002.30 1003.56 1004.62 1005.79 1007.27 1008.82 1009.86 1010.63 1011.25 1012.02 1012.80 1013.52 1014.29 1015.03 1015.76 1016.30 1016.82 1017.19 1017.63 1018.02 1018.38 1018.90 1019.00 1019.14 1019.73
1017.35 1016.18 1014.99 1013.83 1011.96 1009.42 1007.31 1003.99 1001.92 1000.16 998.91 999.06 998.42 998.11 997.44 997.27 996.92 996.86 997.05 997.08 997.43 998.20 999.05 1000.10 1001.06 1002.24 1003.56 1004.76 1006.21 1007.70 1008.90 1009.96 1010.80 1011.67 1012.34 1013.07 1013.83 1014.56 1015.35 1016.06 1016.53 1016.95 1017.43 1017.88 1018.36 1018.90 1019.06 1019.16 1019.76
1016.32 1016.12 1015.27 1013.77 1012.01 1009.60 1007.80 1003.02 1000.58 999.81 999.58 999.20 998.48 998.58 998.23 997.83 997.38 996.92 996.59 996.88 996.92 997.64 998.59 999.38 1000.48 1001.76 1003.11 1004.26 1005.67 1007.08 1008.16 1009.29 1010.30 1011.12 1011.83 1012.51 1013.28 1014.03 1014.84 1015.60 1016.16 1016.68 1017.18 1017.74 1018.32 1018.92 1019.06 1019.20 1019.68
1016.90 1016.03 1015.12 1014.11 1012.36 1009.76 1007.60 1004.17 1000.30 999.98 999.66 999.50 999.46 999.28 999.02 998.75 998.44 997.43 996.87 996.89 997.27 997.65 998.38 999.10 1000.10 1001.15 1002.34 1003.54 1004.99 1006.24 1007.43 1008.52 1009.56 1010.52 1011.33 1012.06 1012.83 1013.68 1014.30 1015.14 1015.80 1016.38 1016.89 1017.44 1018.05 1018.75 1019.07 1019.21 1019.53
Wind_Speed
10 9 2 5 5 4 3 9 4 7 3 2 3 6 8 4 3 4 3 17 19 15 11 12 19 16 14 14 13 13 12 11 11 11 10 10 10 11 10 11 10 10 11 12 10 13 12 12 11
6 7 4 2 4 1 6 9 8 3 3 5 4 3 4 3 4 7 8 16 18 15 10 12 18 15 14 14 13 13 12 11 11 11 11 11 11 10 11 11 12 12 12 12 13 12 11 11 12
5 3 4 4 3 6 6 2 5 1 4 4 3 5 4 4 5 4 16 18 17 13 13 12 17 14 14 14 13 13 12 11 11 11 11 11 11 11 11 12 12 12 12 12 13 14 13 13 12
3 5 5 4 7 9 8 13 9 2 4 4 3 4 4 5 7 10 18 17 15 13 14 14 16 15 15 14 14 13 12 12 12 11 11 11 11 11 11 11 11 13 13 13 14 14 14 13 12
3 3 0 3 7 9 9 8 6 1 2 2 4 4 3 4 9 18 16 16 16 13 12 14 16 15 15 14 14 13 12 12 12 11 11 11 11 11 12 12 12 12 13 14 15 14 13 14 12
4 3 2 5 8 9 9 8 6 5 3 2 2 8 3 6 8 13 15 14 15 15 12 12 12 12 13 14 13 13 12 12 11 11 11 11 11 11 12 12 11 12 12 14 14 12 11 11 13
4 4 5 5 6 9 6 9 4 2 1 3 3 6 4 5 6 9 12 13 14 15 12 9 7 9 12 12 11 12 12 11 11 11 10 10 10 10 10 11 10 11 12 13 13 12 9 6 11
4 4 3 4 5 10 7 3 2 3 3 3 2 5 6 5 8 8 11 13 14 13 13 12 8 6 7 6 10 11 11 11 10 9 8 8 8 10 10 7 8 8 10 13 18 17 18 12 14
3 2 5 6 7 8 10 4 5 2 3 4 6 3 8 13 7 7 9 8 12 11 12 12 11 9 7 6 6 10 10 10 9 7 7 5 2 5 5 5 5 9 9 15 17 17 18 13 12
5 5 9 8 5 4 6 0 4 6 6 2 6 6 11 12 9 8 9 10 11 12 13 12 12 11 9 7 6 6 6 4 4 4 3 4 5 4 4 3 4 7 11 15 15 16 15 10 5
6 7 5 8 8 3 5 8 3 2 5 5 4 6 7 12 9 9 11 10 9 14 10 11 12 13 10 7 4 3 3 3 3 5 4 4 3 2 2 2 4 3 8 4 7 6 5 7 6
7 8 8 4 6 7 5 3 7 4 9 5 4 17 10 12 14 16 17 11 11 13 12 11 9 13 9 6 5 5 4 3 3 3 4 4 2 3 4 3 4 4 3 5 4 3 6 7 7
9 6 9 11 10 8 6 8 8 8 9 9 2 13 15 13 12 11 9 7 10 14 12 12 10 11 10 8 5 5 5 4 4 4 3 4 4 4 3 4 4 4 4 4 4 5 5 6 6
8 14 15 7 9 7 7 13 6 8 9 10 7 11 14 17 17 12 13 10 12 17 12 11 11 11 10 8 7 5 5 5 5 4 3 5 4 4 4 4 4 4 4 3 4 5 5 4 4
9 9 11 12 6 7 7 15 10 16 7 12 13 10 14 16 16 19 19 17 14 13 12 14 13 11 11 9 7 6 5 5 5 4 5 5 5 5 6 4 4 4 4 5 4 5 4 4 6
7 6 5 5 7 8 12 23 7 16 10 18 17 13 11 16 21 19 17 19 14 13 12 13 13 11 10 9 7 6 5 5 5 4 4 5 5 6 6 4 4 3 4 3 4 3 4 5 5
3 7 11 14 11 9 12 15 15 14 11 14 15 16 12 13 11 15 18 19 19 17 14 16 16 13 11 9 6 6 7 5 5 5 4 5 5 6 6 4 4 4 4 3 5 4 3 5 5
5 8 10 12 5 9 16 19 15 8 9 14 11 13 11 13 17 14 19 19 19 18 15 17 14 13 12 9 5 4 4 4 5 5 5 6 5 6 6 5 4 4 4 4 5 7 3 5 6
17 20 26 19 18 21 21 18 16 17 12 12 10 10 15 17 13 16 18 20 20 18 15 19 18 16 12 10 9 7 7 4 4 4 7 7 6 6 6 4 4 4 6 5 4 6 5 3 3
15 18 19 18 12 14 21 24 22 16 14 14 16 13 11 7 9 13 16 20 21 22 19 19 20 19 15 11 9 5 7 3 3 4 6 6 7 6 6 6 5 5 5 6 4 3 3 2 1
17 17 18 20 19 23 21 27 18 12 9 8 12 15 13 15 14 10 15 19 21 21 22 21 22 20 17 14 8 5 4 4 3 4 4 5 7 7 7 7 5 5 4 4 4 3 3 3 1
25 12 19 19 13 13 12 18 19 11 17 18 20 18 15 14 15 14 14 19 23 22 22 22 21 20 19 18 14 16 13 12 6 7 4 5 7 7 7 7 6 6 4 5 4 3 2 3 3
27 19 21 21 20 16 17 16 22 13 24 31 19 19 20 19 17 20 16 21 23 22 22 21 23 22 20 19 16 13 12 8 6 5 8 6 6 7 7 7 7 6 4 5 6 5 4 3 3
18 19 23 23 14 16 27 18 13 20 32 13 19 17 17 20 20 17 16 17 19 20 21 21 23 23 21 20 19 19 16 13 11 10 9 7 6 6 6 7 6 6 5 5 5 5 6 4 4
13 15 9 8 13 23 14 16 24 8 11 21 20 18 21 20 21 20 17 17 19 21 22 20 24 24 22 22 20 19 17 16 17 15 12 11 8 6 8 6 6 5 5 5 5 5 5 6 5
24 11 8 11 11 21 12 16 19 15 22 29 25 22 16 13 16 21 23 17 19 20 23 24 25 24 23 22 22 18 16 11 11 14 11 10 10 9 10 8 7 7 7 5 5 4 4 6 5
3 8 15 14 24 16 8 16 25 24 27 21 22 22 19 13 10 14 19 17 19 20 23 24 24 23 25 24 19 18 16 15 13 15 12 10 10 9 11 10 8 7 7 6 6 4 5 6 6
17 12 6 6 9 11 8 16 11 11 24 23 29 21 20 17 11 9 13 15 19 21 22 23 24 25 25 24 19 17 17 15 13 12 14 13 11 12 12 11 10 8 8 7 6 5 5 7 5
13 9 7 9 8 6 13 10 7 15 4 5 4 7 7 7 7 8 8 9 16 17 19 20 21 22 21 21 19 18 16 16 14 13 13 14 14 14 14 12 11 10 9 8 7 6 6 9 9
15 8 9 5 9 7 8 22 3 8 6 6 5 6 7 7 8 8 8 9 11 16 17 19 19 20 20 20 19 18 16 16 16 14 14 14 14 13 14 13 12 11 10 9 10 8 7 10 12
Wind_Direction
315 302 307 38 52 72 252 258 252 280 58 27 341 74 127 81 44 157 93 118 125 130 135 133 122 125 127 123 118 114 110 105 99 92 85 79 73 66 63 57 49 41 32 28 22 24 16 12 10
316 311 36 82 102 54 268 244 239 344 151 111 43 41 67 115 96 136 107 128 129 130 128 124 120 126 132 127 123 118 112 107 99 92 85 79 72 68 59 52 45 37 32 30 29 29 15 10 7
291 193 86 128 181 192 235 359 114 170 69 37 70 53 86 111 116 117 127 132 128 134 128 127 124 135 136 130 127 120 114 107 100 95 89 84 78 67 58 50 49 45 36 31 25 25 20 10 12
320 8 5 112 250 258 256 297 289 85 25 67 90 66 42 329 133 132 132 128 121 128 127 129 122 143 138 134 128 122 116 109 104 99 91 85 77 70 64 59 51 43 38 34 31 28 25 20 13
31 57 68 221 241 268 265 251 246 343 123 236 125 139 81 23 112 122 129 125 126 127 131 126 145 143 140 135 129 125 120 112 108 98 93 88 81 70 61 56 49 47 41 35 32 33 38 32 22
355 99 71 236 255 262 286 297 209 167 181 60 148 112 175 143 119 125 128 130 132 130 129 132 136 141 139 135 131 130 121 116 113 104 97 91 83 76 67 56 50 45 42 41 40 40 38 29 31
138 88 227 229 262 290 261 324 300 318 116 262 223 104 167 141 158 123 131 129 130 127 130 125 127 131 126 124 130 132 124 119 117 110 103 96 89 82 73 57 53 49 47 43 34 28 29 31 20
128 110 249 233 235 277 281 314 251 76 303 292 151 152 170 176 161 109 123 129 132 138 139 132 128 119 112 121 125 117 121 125 123 122 123 121 110 90 82 71 48 41 37 33 48 46 48 51 23
29 57 241 231 213 252 295 7 328 213 110 23 10 102 132 123 117 112 126 136 136 146 144 144 150 139 129 125 136 123 127 136 140 143 140 118 131 117 98 91 36 21 46 53 50 45 41 40 24
140 174 225 212 216 274 284 164 306 7 353 336 52 69 114 128 144 164 168 153 149 154 154 161 152 152 149 148 148 141 149 157 162 148 145 137 109 124 107 70 22 3 46 58 52 50 36 19 19
214 204 244 279 286 263 287 314 307 12 296 217 161 184 150 145 158 180 194 181 166 157 161 169 158 160 154 150 161 156 158 176 155 146 122 104 103 77 83 58 59 48 49 44 46 41 32 12 28
269 245 238 269 288 306 277 263 298 203 236 283 190 166 164 174 175 189 199 193 180 165 161 163 163 161 156 152 160 164 150 150 142 149 137 106 97 82 85 79 77 61 58 55 49 46 25 13 25
281 268 261 266 258 254 282 252 234 255 269 291 217 163 175 179 187 185 200 212 182 181 177 167 158 157 158 151 155 154 156 150 162 146 136 127 115 104 96 85 85 70 73 63 54 56 42 12 22
308 308 293 283 293 294 270 267 182 252 235 261 249 192 183 182 189 177 187 206 194 194 182 179 168 155 155 157 154 158 151 151 151 148 149 128 127 123 100 99 90 80 85 70 70 79 63 23 27
306 312 312 284 254 253 329 276 221 239 218 244 253 214 196 198 183 194 186 193 191 193 188 187 183 156 159 159 153 151 155 150 146 157 152 132 130 118 110 114 100 104 94 82 70 69 70 42 28
330 312 307 272 220 238 178 250 221 232 207 234 238 250 207 202 194 192 188 183 186 186 185 182 183 161 160 157 154 150 151 148 151 151 145 142 143 122 109 114 112 118 104 92 92 80 60 57 36
270 256 249 285 239 264 200 257 255 240 239 239 238 235 223 219 215 190 186 183 179 184 186 184 176 167 161 155 151 147 153 150 159 147 148 153 141 133 116 126 122 117 107 90 104 81 76 58 49
288 288 288 276 300 239 257 257 264 253 214 240 238 244 231 217 215 197 185 182 181 183 181 179 174 163 158 152 136 137 141 155 154 158 158 156 151 129 124 129 125 120 120 122 116 109 81 91 81
283 274 275 283 285 300 290 285 263 238 250 260 249 232 238 224 212 200 185 181 179 183 172 179 170 170 161 161 160 165 169 165 162 164 161 157 156 139 132 141 138 138 138 155 144 132 119 91 109
303 299 300 299 308 265 279 272 272 243 228 215 237 242 226 223 220 205 193 181 179 182 178 176 177 174 172 171 170 162 161 160 155 159 161 158 157 150 142 149 155 156 144 154 184 147 128 122 139
307 294 299 289 312 300 290 280 265 266 247 230 231 237 230 225 224 205 196 188 182 183 182 179 180 176 178 171 144 118 96 91 118 171 161 171 159 157 147 154 156 156 141 159 160 151 144 137 82
292 299 304 297 295 277 354 284 254 241 247 245 237 234 231 222 224 220 191 190 186 185 185 179 178 178 179 167 170 169 176 172 176 173 153 163 158 156 156 152 155 151 159 164 165 169 175 122 141
274 287 281 274 270 286 266 271 264 224 246 241 240 237 237 229 215 217 199 190 191 183 183 180 176 174 177 176 178 173 178 173 150 145 158 159 158 159 160 155 153 154 155 163 154 160 159 159 137
275 286 278 266 264 245 247 228 254 226 236 259 242 236 228 229 222 216 211 189 189 187 182 177 174 177 175 173 176 183 177 164 159 165 169 172 164 162 164 158 156 153 156 160 161 168 165 165 137
332 323 281 244 214 241 235 227 237 264 254 238 244 238 229 224 220 215 196 193 187 186 181 175 175 178 177 175 173 186 181 173 172 170 172 168 167 170 175 158 161 155 164 166 151 152 150 147 142
286 254 267 280 241 259 235 234 242 232 246 261 258 259 270 230 221 210 208 193 190 183 180 177 177 177 178 176 176 184 181 179 177 175 171 175 175 172 165 161 160 161 159 159 146 141 135 128 130
271 242 231 250 264 277 275 253 256 256 264 269 268 260 250 250 220 217 213 188 184 180 183 180 178 179 181 180 172 180 181 178 177 175 171 168 165 163 164 163 162 160 155 152 145 147 139 123 123
200 262 291 216 281 258 271 261 253 230 231 237 248 251 245 249 231 202 214 187 183 183 182 182 179 180 180 183 173 178 179 175 169 166 171 167 162 162 162 163 164 161 155 152 143 152 151 123 122
309 284 263 285 242 253 260 262 221 240 297 349 305 332 341 315 277 237 202 179 183 177 179 180 179 178 179 178 170 175 175 171 166 171 169 166 161 163 164 167 165 164 158 151 143 156 151 134 130
267 296 286 271 310 271 242 256 278 30 63 51 358 334 327 321 310 280 206 159 158 171 172 177 175 175 176 175 171 173 170 168 167 170 168 163 162 163 164 165 165 162 161 154 152 156 160 147 140